Regional Weather Roundup
Issued by NWS

Home | Current Version | Previous Version | Text Only | Print | Product List | Glossary Off
Versions: 1 2 3 4 5 6 7 8 9 10 11 12 13 14 15 16 17 18 19 20 21 22 23 24 25 26 27 28 29 30 31 32 33 34 35 36 37 38 39 40 41 42 43 44 45 46 47 48 49 50

000
ASUS43 KDMX 300207
RWRIA

WEATHER ROUNDUP FOR IOWA
NATIONAL WEATHER SERVICE DES MOINES IA
800 PM CST THU JAN 29 2015

NOTE: "FAIR" INDICATES FEW OR NO CLOUDS BELOW 12,000 FEET WITH NO
SIGNIFICANT WEATHER AND/OR OBSTRUCTIONS TO VISIBILITY.

* - THESE STATIONS ARE NOT NWS STATIONS...THUS NOT UNDER NWS
QUALITY CONTROL.  THEY ALSO DO NOT REPORT WEATHER SUCH
AS PRECIPITATION OR FOG.

IAZ001>003-012>014-020>022-031>034-043>046-300300-
   NORTHWEST IOWA

CITY           SKY/WX    TMP DP  RH WIND       PRES   REMARKS
CARROLL *      CLOUDY    30  21  69 N23G29    30.48R WCI  17
CHEROKEE *     CLOUDY    28  23  80 NW10      30.51R WCI  19
DENISON *      CLOUDY    30  23  74 N14       30.48R WCI  20
LE MARS *      CLOUDY    28  23  80 N12       30.53R WCI  18
ORANGE CITY *  CLOUDY    28  21  74 NW13      30.51R WCI  18
SHELDON *      CLOUDY    27  21  80 N12       30.49R WCI  16
SIOUX CITY     CLOUDY    31  22  69 N15       30.52R WCI  20
SPENCER        MOCLDY    24  17  74 N14       30.49R WCI  12
STORM LAKE *   CLOUDY    27  21  80 N13G18    30.49R WCI  16
$$

IAZ055>058-069>071-079>083-090>094-300300-
   SOUTHWEST IOWA

CITY           SKY/WX    TMP DP  RH WIND       PRES   REMARKS
ATLANTIC *     CLOUDY    32  25  74 N16       30.49R WCI  21
AUDUBON *      CLOUDY    30  23  74 N17       30.49R WCI  18
CLARINDA *     CLOUDY    34  23  64 NW8       30.51R WCI  27
COUNCIL BLFS * CLOUDY    30  25  80 NW9       30.50R WCI  22
CRESTON *      CLOUDY    32  25  74 N12G18    30.47R WCI  23
HARLAN  *      CLOUDY    32  27  80 NW15      30.53R WCI  22
LAMONI         CLOUDY    32  22  66 NW20G25   30.45R WCI  20
RED OAK *      CLOUDY    32  23  69 N7        30.51R WCI  26
SHENANDOAH *   CLOUDY    32  25  74 N6        30.52R WCI  26
$$

IAZ047>049-059>061-072>074-084-300300-
   CENTRAL IOWA

CITY           SKY/WX    TMP DP  RH WIND       PRES   REMARKS
AMES           CLOUDY    28  19  69 NW18      30.46R WCI  15
ANKENY *       CLOUDY    30  21  69 NW18      30.46S WCI  18
CHARITON *     CLOUDY    32  23  69 NW14G23   30.45R WCI  22
DES MOINES     MOCLDY    31  20  63 N15G23    30.47R WCI  20
GRINNELL*      PTCLDY    27  21  80 NW23G32   30.43R WCI  12
KNOXVILLE *    CLOUDY    30  19  64 NW15G23   30.44R WCI  19
MARSHALLTOWN   CLOUDY    27  20  75 NW18      30.43R WCI  14
PELLA *        MOCLDY    30  23  74 N15G25    30.46R WCI  19
PERRY *          N/A     30  23  74 N17       30.48R WCI  18
$$

IAZ004>006-015-016-023>025-035-036-300300-
   NORTH CENTRAL IOWA

CITY           SKY/WX    TMP DP  RH WIND       PRES   REMARKS
ALGONA *       PTCLDY    23  18  80 N13G21    30.48R WCI  11
CLARION *      CLEAR     23  19  86 N20       30.46R WCI   8
ESTHERVILLE    CLEAR     20  16  84 NW21      30.49R WCI   4
FORT DODGE *   MOCLDY    25  18  74 NW13      30.48R WCI  13
MASON CITY     CLOUDY    22  16  78 NW23G32   30.44R WCI   6
FOREST CITY *  PTCLDY    23  16  74 NW16      30.45R WCI  10
IOWA FALLS *   MOCLDY    25  19  80 NW20G31   30.45R WCI  11
$$

IAZ007>011-017>019-026>030-037>042-050>054-066-300300-
   NORTHEAST IOWA

CITY           SKY/WX    TMP DP  RH WIND       PRES   REMARKS
CEDAR RAPIDS   CLOUDY    28  20  71 NW24G31   30.37R WCI  14
CHARLES CITY * CLOUDY    25  19  80 NW17G26   30.41R WCI  11
CLINTON *      CLOUDY    32  21  64 NW22      30.34R WCI  19
DECORAH *      CLOUDY    25  16  68 NW20G26   30.36R WCI  11
DUBUQUE        CLOUDY    29  18  63 N23G32    30.32R WCI  15
MONTICELLO *   CLOUDY    30  21  69 NW21G28   30.35R WCI  17
OELWEIN *      CLOUDY    25  18  74 NW25G33   30.39R WCI   9
WATERLOO       CLOUDY    26  18  71 NW23      30.41R WCI  11
$$

IAZ064-065-067-068-078-300300-
   EAST CENTRAL IOWA

CITY           SKY/WX    TMP DP  RH WIND       PRES   REMARKS
DAVENPORT      CLOUDY    31  21  66 NW24G32   30.33R WCI  17
IOWA CITY      CLOUDY    31  22  69 NW15      30.40R WCI  20
MT. PLEASANT * CLOUDY    32  23  69 NW15G24   30.39R WCI  22
MUSCATINE *    CLOUDY    34  23  64 NW21G29   30.38R WCI  22
QUAD CITIES    CLOUDY    33  22  63 NW24G35   30.33R WCI  20
$$

IAZ062-063-075>077-085>089-095>099-300300-
   SOUTHEAST IOWA

CITY           SKY/WX    TMP DP  RH WIND       PRES   REMARKS
BURLINGTON     CLOUDY    34  25  69 NW15G25   30.37R WCI  24
FAIRFIELD *    CLOUDY    30  23  74 NW21      30.41R WCI  17
FORT MADISON * CLOUDY    34  25  69 NW14G22   30.39R WCI  24
KEOKUK *       CLOUDY    34  23  64 NW17G28   30.39R WCI  23
OSKALOOSA *    MOCLDY    28  21  74 NW20G26   30.43R WCI  15
CENTERVILLE *  CLOUDY    32  23  69 NW18G24   30.45R WCI  20
OTTUMWA        CLOUDY    29  20  69 NW18G26   30.42R WCI  16
WASHINGTON *   CLOUDY    32  27  80 NW15G23   30.40R WCI  22
$$

ABBREVIATIONS USED IN REMARKS
   TC - TEMPERATURES IN CELSIUS
  WCI - WIND CHILL INDEX
   HX - HEAT INDEX
  VSB - VISIBILITY
$$




USA.gov is the U.S. government's official web portal to all federal, state and local government web resources and services.